Orlando Sanford International Airport Orlando US
ICAO: KSFB
IATA: SFB
Category: Large
Scheduled Services: Yes

Elevation: 55 ft
TransAlt. 18000 ft.

Airport Communications:
APP/DEP:119.775
ATIS:125.975
CLNC DEL:121.35
CTAF:120.3
GND:121.35
SANFORD TWR:120.3

KSFB Zoom In..

Runways:

(A) RW 09C length 3578 ft width 75 ft
---- / hdg 95

(B) RW 09L length 11000 ft width 150 ft
ILS 108.90 / hdg 95

(C) RW 09R length 6647 ft width 75 ft
ILS 111.55 / hdg 95

(D) RW 18 length 6002 ft width 150 ft
---- / hdg 185

(E) RW 27C length 3578 ft width 75 ft
---- / hdg 275

(F) RW 27L length 6647 ft width 75 ft
---- / hdg 275

(G) RW 27R length 11000 ft width 150 ft
ILS 110.15 / hdg 275

(H) RW 36 length 6002 ft width 150 ft
---- / hdg 5

Location; KSFB
Day. 19 / Time. 01.53 Zulu
* Altimeter: 29.94
* Temperature: 20° c. 68°f.
* Wind from: 330° Speed 07 kn.
Dewpoint: 19° c.
Visibility: 10 Statute Miles.
Clouds: Few 2500 ft.
Clouds: Broken 4100 ft.
Clouds: Broken 4900 ft.

KSFB 190153Z 33007KT 10SM FEW025 BKN041 BKN049 20/19 A2994 RMK AO2 LTG DSNT NE SLP136 T02000189

Going to: --> -->


Wind From 330°
Speed 07 kn.

 
 
jpsmedia worldairports.se 2021   terms of use